Location: Finnegan
(51.1333°N, 112.0833°W)
Time: 20:48:28
(UTC+00:00)

Envisat - Pass Details

Date: 07 December 2021
Orbit: 764 x 766 km, 98.2° (Epoch: 26 January)

Event Time Altitude Azimuth Distance (km) Brightness Sun altitude
Rises 11:59:26 0° 19° (NNE) 3,247 6.5 -29.9°
Reaches altitude 10° 12:01:54 10° 27° (NNE) 2,316 5.8 -29.6°
Maximum altitude 12:06:42 40° 97° (E) 1,114 4.2 -28.8°
Drops below altitude 10° 12:11:28 10° 167° (SSE) 2,298 5.6 -28.1°
Sets 12:13:53 0° 175° (S) 3,219 6.3 -27.7°
